• In Netherlands
  • List of Countries
  • For 7 days
  • Water Temperature
  • Satellite Maps
  • Weather Map
  • Weather Widgets
  • user-avatar
    Login

    Hourly Weather Chernomorec

    Today, 29 June, Thursday

    Time Temperature Precipitation Wind Pressure Humidity
    00:00 +23°C° 0 mm 2 mps 757 mmHg 88%
    01:00 +23°C° 0 mm 2 mps 757 mmHg 87%
    02:00 +21°C° 0 mm 2 mps 756 mmHg 86%
    03:00 +21°C° 0 mm 2 mps 756 mmHg 85%
    04:00 +21°C° 0 mm 2 mps 756 mmHg 85%
    05:00 +21°C° 0 mm 2 mps 756 mmHg 84%
    06:00 +25°C° 0 mm 2 mps 757 mmHg 75%
    07:00 +27°C° 0 mm 2 mps 757 mmHg 66%
    08:00 +30°C° 0 mm 2 mps 757 mmHg 57%
    09:00 +33°C° 0 mm 3 mps 757 mmHg 51%
    10:00 +34°C° 0 mm 3 mps 757 mmHg 46%
    11:00 +36°C° 0 mm 4 mps 757 mmHg 41%
    12:00 +37°C° 0 mm 4 mps 756 mmHg 39%
    13:00 +39°C° 0 mm 5 mps 756 mmHg 36%
    14:00 +40°C° 0 mm 5 mps 756 mmHg 34%
    15:00 +40°C° 0 mm 5 mps 756 mmHg 35%
    16:00 +39°C° 0 mm 5 mps 755 mmHg 36%
    17:00 +39°C° 0 mm 5 mps 755 mmHg 38%
    18:00 +36°C° 0 mm 5 mps 755 mmHg 44%
    19:00 +33°C° 0 mm 5 mps 755 mmHg 50%
    20:00 +30°C° 0 mm 5 mps 755 mmHg 56%
    21:00 +29°C° 0 mm 5 mps 755 mmHg 56%
    22:00 +29°C° 0 mm 5 mps 755 mmHg 56%
    23:00 +28°C° 0 mm 4 mps 756 mmHg 57%

    Tomorrow, 30 June, Friday

    Time Temperature Precipitation Wind Pressure Humidity
    00:00 +27°C° 0 mm 4 mps 756 mmHg 57%
    01:00 +27°C° 0 mm 4 mps 756 mmHg 57%
    02:00 +27°C° 0 mm 3 mps 756 mmHg 57%
    03:00 +26°C° 0 mm 3 mps 756 mmHg 57%
    04:00 +26°C° 0 mm 3 mps 757 mmHg 57%
    05:00 +25°C° 0 mm 3 mps 757 mmHg 56%
    06:00 +28°C° 0 mm 3 mps 757 mmHg 49%
    07:00 +31°C° 0 mm 3 mps 757 mmHg 42%
    08:00 +34°C° 0 mm 3 mps 758 mmHg 35%
    09:00 +36°C° 0 mm 2 mps 758 mmHg 32%
    10:00 +37°C° 0 mm 2 mps 758 mmHg 29%
    11:00 +39°C° 0 mm 2 mps 758 mmHg 26%
    12:00 +39°C° 0 mm 2 mps 758 mmHg 25%
    13:00 +40°C° 0 mm 2 mps 758 mmHg 24%
    14:00 +41°C° 0 mm 2 mps 758 mmHg 23%
    15:00 +40°C° 0 mm 2 mps 758 mmHg 23%
    16:00 +40°C° 0 mm 3 mps 757 mmHg 24%
    17:00 +40°C° 0 mm 3 mps 757 mmHg 25%
    18:00 +37°C° 0 mm 3 mps 757 mmHg 31%
    19:00 +33°C° 0 mm 3 mps 758 mmHg 37%
    20:00 +29°C° 0 mm 3 mps 758 mmHg 44%
    21:00 +28°C° 0 mm 3 mps 758 mmHg 46%
    22:00 +27°C° 0 mm 2 mps 758 mmHg 48%
    23:00 +26°C° 0 mm 2 mps 759 mmHg 50%

    Day after tomorrow, 1 July, Saturday

    Time Temperature Precipitation Wind Pressure Humidity
    00:00 +26°C° 0 mm 2 mps 759 mmHg 53%
    01:00 +25°C° 0 mm 2 mps 759 mmHg 55%
    02:00 +24°C° 0 mm 1 mps 758 mmHg 58%
    03:00 +24°C° 0 mm 1 mps 758 mmHg 59%
    04:00 +24°C° 0 mm 1 mps 758 mmHg 60%
    05:00 +24°C° 0 mm 1 mps 758 mmHg 60%
    06:00 +27°C° 0 mm 1 mps 758 mmHg 52%
    07:00 +30°C° 0 mm 1 mps 758 mmHg 44%
    08:00 +34°C° 0 mm 1 mps 758 mmHg 36%
    09:00 +36°C° 0 mm 2 mps 758 mmHg 33%
    10:00 +38°C° 0 mm 2 mps 758 mmHg 30%
    11:00 +39°C° 0 mm 3 mps 758 mmHg 27%
    12:00 +39°C° 0 mm 3 mps 757 mmHg 27%
    13:00 +41°C° 0 mm 4 mps 757 mmHg 26%
    14:00 +41°C° 0 mm 4 mps 756 mmHg 26%
    15:00 +40°C° 0 mm 4 mps 756 mmHg 30%
    16:00 +38°C° 0 mm 4 mps 755 mmHg 33%
    17:00 +37°C° 0 mm 4 mps 755 mmHg 37%
    18:00 +34°C° 0 mm 4 mps 755 mmHg 47%
    19:00 +30°C° 0 mm 4 mps 755 mmHg 58%
    20:00 +27°C° 0 mm 3 mps 755 mmHg 69%
    21:00 +26°C° 0 mm 3 mps 755 mmHg 71%
    22:00 +25°C° 0 mm 3 mps 755 mmHg 73%
    23:00 +24°C° 0 mm 2 mps 755 mmHg 75%

    2 July, Sunday

    Time Temperature Precipitation Wind Pressure Humidity
    00:00 +24°C° 0 mm 2 mps 755 mmHg 75%
    01:00 +23°C° 0 mm 2 mps 755 mmHg 75%
    02:00 +23°C° 0 mm 1 mps 755 mmHg 76%
    03:00 +22°C° 0 mm 1 mps 754 mmHg 74%
    04:00 +22°C° 0 mm 1 mps 754 mmHg 73%
    05:00 +22°C° 0 mm 1 mps 754 mmHg 72%
    06:00 +25°C° 0 mm 1 mps 754 mmHg 62%
    07:00 +29°C° 0 mm 2 mps 755 mmHg 52%
    08:00 +32°C° 0 mm 2 mps 755 mmHg 43%
    09:00 +34°C° 0 mm 2 mps 755 mmHg 40%
    10:00 +35°C° 0 mm 3 mps 754 mmHg 38%
    11:00 +37°C° 0 mm 3 mps 754 mmHg 36%
    12:00 +37°C° 0 mm 4 mps 754 mmHg 36%
    13:00 +37°C° 0 mm 4 mps 753 mmHg 36%
    14:00 +38°C° 0 mm 4 mps 753 mmHg 36%
    15:00 +37°C° 0 mm 4 mps 753 mmHg 40%
    16:00 +36°C° 0 mm 4 mps 752 mmHg 43%
    17:00 +35°C° 0 mm 4 mps 752 mmHg 47%
    18:00 +32°C° 0 mm 4 mps 752 mmHg 58%
    19:00 +29°C° 0 mm 4 mps 751 mmHg 68%
    20:00 +26°C° 0 mm 4 mps 751 mmHg 79%
    21:00 +25°C° 0 mm 4 mps 751 mmHg 82%
    22:00 +24°C° 0 mm 3 mps 752 mmHg 85%
    23:00 +22°C° 0 mm 3 mps 752 mmHg 88%

    3 July, Monday

    Time Temperature Precipitation Wind Pressure Humidity
    00:00 +23°C° 0 mm 4 mps 752 mmHg 87%
    01:00 +23°C° 0 mm 6 mps 752 mmHg 85%
    02:00 +23°C° 0 mm 7 mps 752 mmHg 84%
    03:00 +23°C° 0 mm 7 mps 752 mmHg 85%
    04:00 +22°C° 0 mm 6 mps 752 mmHg 86%
    05:00 +22°C° 0 mm 6 mps 752 mmHg 87%
    06:00 +23°C° 0.1 mm 6 mps 752 mmHg 82%
    07:00 +24°C° 0.1 mm 6 mps 753 mmHg 77%
    08:00 +26°C° 0.1 mm 7 mps 753 mmHg 72%
    09:00 +27°C° 0.2 mm 7 mps 753 mmHg 70%
    10:00 +27°C° 0.2 mm 7 mps 753 mmHg 67%
    11:00 +28°C° 0.2 mm 8 mps 753 mmHg 64%
    12:00 +27°C° 0.2 mm 9 mps 753 mmHg 65%
    13:00 +27°C° 0.2 mm 10 mps 754 mmHg 66%
    14:00 +27°C° 0.2 mm 10 mps 754 mmHg 67%
    15:00 +26°C° 0.4 mm 10 mps 754 mmHg 68%
    16:00 +24°C° 0.4 mm 9 mps 755 mmHg 70%
    17:00 +24°C° 0.4 mm 9 mps 755 mmHg 72%
    18:00 +23°C° 0.4 mm 9 mps 755 mmHg 76%
    19:00 +21°C° 0.4 mm 8 mps 756 mmHg 79%
    20:00 +20°C° 0.4 mm 8 mps 756 mmHg 83%
    21:00 +20°C° 0.1 mm 8 mps 757 mmHg 84%
    22:00 +20°C° 0.1 mm 8 mps 757 mmHg 84%
    23:00 +18°C° 0.1 mm 7 mps 757 mmHg 85%

    4 July, Tuesday

    Time Temperature Precipitation Wind Pressure Humidity
    00:00 +18°C° 0.4 mm 8 mps 758 mmHg 85%
    01:00 +18°C° 0.4 mm 8 mps 758 mmHg 86%
    02:00 +18°C° 0.4 mm 8 mps 758 mmHg 86%
    03:00 +18°C° 0.1 mm 8 mps 758 mmHg 85%
    04:00 +18°C° 0.1 mm 8 mps 758 mmHg 84%
    05:00 +18°C° 0.1 mm 9 mps 759 mmHg 83%
    06:00 +19°C° 0 mm 9 mps 759 mmHg 77%
    07:00 +21°C° 0 mm 9 mps 759 mmHg 71%
    08:00 +22°C° 0 mm 9 mps 760 mmHg 64%
    09:00 +23°C° 0 mm 9 mps 760 mmHg 57%
    10:00 +26°C° 0 mm 9 mps 760 mmHg 51%
    11:00 +27°C° 0 mm 8 mps 760 mmHg 44%
    12:00 +28°C° 0 mm 8 mps 760 mmHg 42%
    13:00 +29°C° 0 mm 7 mps 760 mmHg 40%
    14:00 +30°C° 0 mm 7 mps 760 mmHg 38%
    15:00 +29°C° 0 mm 6 mps 760 mmHg 40%
    16:00 +29°C° 0 mm 6 mps 760 mmHg 41%
    17:00 +29°C° 0 mm 5 mps 760 mmHg 42%
    18:00 +27°C° 0 mm 5 mps 761 mmHg 50%
    19:00 +25°C° 0 mm 4 mps 761 mmHg 57%
    20:00 +22°C° 0 mm 3 mps 761 mmHg 65%
    21:00 +21°C° 0 mm 3 mps 762 mmHg 67%
    22:00 +20°C° 0 mm 3 mps 762 mmHg 70%
    23:00 +19°C° 0 mm 3 mps 762 mmHg 72%
    Show more